Погода в Ла-Мальбе

Канада     47°39′30″N   70°09′16″W
темп.,
°C
ветер,
м/с
пор.,
м/с
влажн.,
%
обл.,
%
осадки,
мм/ч
давл.,
гПа
погр.,
м
23 мая, пн
пн2323:00+6сз31090100 0.0 1016742
02:00+5зсз278654 0.1 1019752
05:00+1сз248966 0.0 1022175
08:00+6сз36615 0.0 10241090
11:00+9сз354549 0.0 10241536
14:00+11ссз564312 0.0 10241660
17:00+11ссз56415 0.0 10241654
20:00+7сз226023 0.0 102632
24 мая, вт
вт2423:00+5сз3463100 0.0 102760
02:00+4сз33605 0.0 102852
05:00+3сз32631 0.0 102935
08:00+11ссв01425 0.0 1029471
11:00+14ююв3232100 0.0 10281662
14:00+16ююв332698 0.0 10261746
17:00+15ю3532100 0.0 10251605
20:00+9ю11615 0.0 102510
25 мая, ср
ср2523:00+7сз226470 0.0 102615
02:00+8зсз22644 0.0 102534
05:00+5зсз22744 0.0 102628
08:00+13зюз23511 0.0 1025391
11:00+19зсз363458 0.0 10242502
14:00+21сз5830100 0.0 10222971
17:00+18ссз5846100 0.0 10231856
20:00+12сз2271100 0.0 102526
26 мая, чт
чт2623:00+10зсз2274100 0.0 102518
02:00+9с117099 0.0 102516
05:00+9всв1162100 0.0 102512
08:00+11вюв1348100 0.0 1023298
11:00+8в2390100 2.6 1021194
14:00+8юв2699100 10.9 1016369
17:00+8ююз2699100 1.0 1012268
20:00+10ю13100100 1.1 1009110
27 мая, пт
пт2723:00+11юз1199100 3.5 100639
02:00+12ююз1299100 6.2 100476
05:00+13зюз2794100 0.6 1004537
08:00+12зсз3882100 0.7 10071092
11:00+10сз357894 0.1 1010829
14:00+8ссв2483100 0.1 1013750
17:00+7всв2284100 0.0 1015398
20:00+6всв1289100 0.0 1016109